Location: Newark
(37.9800°N, 91.3000°W)
Time: 00:19:03
(UTC+00:00)

N. Korean satellite - Pass Details

Date: 24 October 2019
Orbit: 456 x 506 km, 97.2° (Epoch: 20 November)

Event Time Altitude Azimuth Distance (km) Brightness Sun altitude
Rises 10:58:51 0° 33° (NNE) 2,579 10.7 -17.1°
Reaches altitude 10° 11:01:44 10° 59° (ENE) 1,700 10.2 -16.5°
Maximum altitude 11:03:47 14° 93° (E) 1,448 10.2 -16.1°
Drops below altitude 10° 11:05:51 10° 127° (SE) 1,704 10.2 -15.7°
Sets 11:08:44 0° 153° (SSE) 2,588 10.7 -15.2°
